CZ-4C R/B

Satellite information

Favourite Embed

Satellite Type and Status

ROCKET BODYIN ORBIT

Key statistics

Satellite CZ-4C R/B at a glance.

Uptime

2822

Days in orbit

Revolutions

≈ 15.2

Per day

Orbit

SSO

Sun Synchronous Orbit

Inclination

98.1

Latest

Satellite identification and parameters

Extended collection of information and parameters for CZ-4C R/B.

Object identification

Identified? True

Debris? False

Object name: CZ-4C R/B

International designator: 2018-031F

Object number (NORAD): 43264

Object ID (CCSDS): 43264

Country: PEOPLES REPUBLIC OF CHINA (PRC)

Current information (Y/N): Y

RCS size: LARGE

Orbital parameters

Period: 94.668 minutes

Inclination: 98.1363 deg

SMA: 6880.656 km

Apoapsis: 558.178 km

Periapsis: 446.864 km

RAAN: 255.7524 deg

Eccentricy: 0.00808885

Argument of periapsis: 294.9259 deg

Mean anomaly: 64.3585 deg

Mean motion: 15.2110077 rev/day

Mean motion (dot): 0.00006503 rev/day2

B* drag term: 0.00027120335 1/REarth

Two-line elements (TLE)

Creation date: Dec. 20, 2025, 5:42 p.m.

Reference frame: TEME

Reference center: EARTH

Epoch: Dec. 20, 2025, 6:27 a.m. UTC

TLE line 0: 0 CZ-4C R/B

TLE line 1: 1 43264U 18031F 25354.26936526 .00006503 00000-0 27120-3 0 9999

TLE line 2: 2 43264 98.1363 255.7524 0080888 294.9259 64.3585 15.21100770424031

Live tracking on map

Real-time ground track for satellite CZ-4C R/B.

In-orbit conjunctions

A list of the most updated potential collisions computed for object CZ-4C R/B.

Target Orbit TCA Probability of collision Miss distance Type
PRETTY SSO 2025-04-21 18:53:00 0.0001614916 682.0 (m) PAYLOAD
OBJECT B LEO 2024-12-15 09:52:40 0.0006985958 42.0 (m) UNKNOWN

Associated space launch

Gaofen is a series of Chinese civilian Earth observation satellites. These three satellites are to be operated together with the Gaofen-1 satellite, which was launched in 2013.

CZ-4C R/B was lifted into orbit during the mission ‘Long March 4C | Gaofen 1-02, 1-03 & 1-04’, on board a Long March 4C space rocket.

The launch took place on March 31, 2018, 3:22 a.m. from Launch Complex 9.

For more information about the launch, click the button.

Launch to space Long March 4C | Gaofen 1-02, 1-03 & 1-04
Long March 4C | Gaofen 1-02, 1-03 & 1-04

Agency: N/A

Status: Launch Successful

Launch date: March 31, 2018, 3:22 a.m. UTC

Rocket: Long March 4C

Launch pad: Launch Complex 9

Location: Taiyuan Satellite Launch Center, People's Republic of China

...

Latest news about this satellite

There are no fresh news available about this satellite. Check back as we update our databases every day.


Newsletter sign-up

Weekly statistics, charts and insights to help you stay on top of the space industry.